TimeAST,TemperatureF,Dew PointF,Humidity,Sea Level PressureIn,VisibilityMPH,Wind Direction,Wind SpeedMPH,Gust SpeedMPH,PrecipitationIn,Events,Conditions,WindDirDegrees,DateUTC
12:53 AM,73.9,66.0,76,29.96,10.0,Calm,Calm,-,N/A,,Clear,0,2012-12-17 04:53:00
1:53 AM,73.0,66.9,81,29.95,10.0,East,4.6,-,N/A,,Clear,100,2012-12-17 05:53:00
2:53 AM,73.0,68.0,84,29.95,10.0,East,3.5,-,N/A,,Clear,80,2012-12-17 06:53:00
3:53 AM,72.0,66.9,84,29.95,10.0,East,3.5,-,N/A,,Clear,100,2012-12-17 07:53:00
4:53 AM,73.0,66.9,81,29.96,10.0,NE,3.5,-,N/A,,Clear,50,2012-12-17 08:53:00
5:53 AM,73.0,66.9,81,29.96,10.0,East,4.6,-,N/A,,Clear,100,2012-12-17 09:53:00
6:53 AM,73.0,66.9,81,29.97,10.0,Calm,Calm,-,N/A,,Clear,0,2012-12-17 10:53:00
7:53 AM,75.9,68.0,76,29.99,10.0,East,6.9,-,N/A,,Clear,100,2012-12-17 11:53:00
8:53 AM,78.1,66.9,68,30.01,10.0,ESE,9.2,-,N/A,,Partly Cloudy,110,2012-12-17 12:53:00
9:53 AM,80.1,66.0,62,30.01,10.0,ESE,9.2,-,0.00,,Clear,120,2012-12-17 13:53:00
10:53 AM,82.0,66.9,60,30.01,10.0,ENE,10.4,-,N/A,,Mostly Cloudy,70,2012-12-17 14:53:00
11:53 AM,82.9,66.9,58,30.00,10.0,East,10.4,18.4,N/A,,Mostly Cloudy,100,2012-12-17 15:53:00
12:53 PM,82.0,68.0,62,29.97,10.0,SE,12.7,-,N/A,,Mostly Cloudy,140,2012-12-17 16:53:00
1:53 PM,82.0,68.0,62,29.95,10.0,ESE,11.5,20.7,N/A,,Mostly Cloudy,120,2012-12-17 17:53:00
2:53 PM,82.0,68.0,62,29.93,10.0,SSE,15.0,-,N/A,,Mostly Cloudy,150,2012-12-17 18:53:00
3:53 PM,80.1,66.9,64,29.93,10.0,ENE,10.4,-,N/A,,Mostly Cloudy,60,2012-12-17 19:53:00
4:53 PM,79.0,68.0,69,29.94,10.0,East,6.9,-,N/A,,Partly Cloudy,80,2012-12-17 20:53:00
5:53 PM,78.1,66.9,68,29.95,10.0,East,9.2,-,N/A,,Partly Cloudy,90,2012-12-17 21:53:00
8:53 PM,78.1,68.0,71,29.97,10.0,East,10.4,-,N/A,,Scattered Clouds,80,2012-12-18 00:53:00
9:53 PM,75.9,66.9,74,29.99,10.0,East,4.6,-,N/A,,Clear,90,2012-12-18 01:53:00
10:53 PM,75.9,68.0,76,29.98,10.0,ENE,3.5,-,N/A,,Clear,70,2012-12-18 02:53:00
11:53 PM,75.9,68.0,76,29.97,10.0,Calm,Calm,-,N/A,,Clear,0,2012-12-18 03:53:00